National Weather Service Raw Text Product

Displaying AFOS PIL: RWREWX Received: 2019-01-23 05:00 UTC


238 
ASUS44 KEWX 230501
RWREWX
SOUTH TEXAS REGIONAL WEATHER ROUNDUP
NATIONAL WEATHER SERVICE AUSTIN/SAN ANTONIO TX
1100 PM CST TUE JAN 22 2019

NOTE: "FAIR" INDICATED FEW OR NO CLOUDS BELOW 12,000 FEET WITH NO
SIGNIFICANT WEATHER AND/OR OBSTRUCTIONS TO VISIBILITY.

* - THESE STATIONS ARE NOT NWS OR FAA STATIONS...AND ARE NOT SUBJECT
    TO NWS AND FAA QUALITY CONTROL.
 
TXZ171-172-183>190-230600-
TEXAS HILL COUNTRY AND EDWARDS PLATEAU
  
CITY           SKY/WX    TMP DP  RH WIND       PRES   REMARKS
JUNCTION       CLOUDY    42  24  49 N10G23    30.16R WCI  36          
*LLANO         CLOUDY    43  32  65 NW13G24   30.13R WCI  36          
BURNET         CLOUDY    41  34  76 NW13      30.10R WCI  34          
*HORSESHOE BAY CLOUDY    43  34  71 NW14G20   30.11R WCI  36          
*KERRVILLE     CLOUDY    44  31  61 NW25G31   30.05F WCI  34          
*FREDERICKSBRG CLOUDY    41  29  61 N23G31    30.06R WCI  32          
*ROCKSPRINGS   CLOUDY    41  27  56 N23G30    30.12S WCI  31          
*BOERNE STAGE  CLOUDY    43  37  81 N15G23    30.04R WCI  35          
*CASTROVILLE   DRIZZLE   47  40  74 N18G24    29.98F WCI  40          
HONDO          RAIN      49  45  86 N21       29.99S WCI  42          
*UVALDE        CLOUDY    51  34  52 N21G29    30.01R                  
DEL RIO        CLOUDY    50  28  42 NW18G30   30.13R WCI  44          
LAUGHLIN AFB   CLOUDY    51  27  40 NW24G36   30.11R                  
CARRIZO SPRGS  NOT AVBL                                               
*FAITH RANCH   CLEAR     63  52  67 N21G31    29.98R                  
$$

TXZ173-191>194-202-209-217>225-228-230600-
CENTRAL AND SOUTH CENTRAL TEXAS
  
CITY           SKY/WX    TMP DP  RH WIND       PRES   REMARKS
GEORGETOWN     LGT RAIN  40  37  89 NW13G20   30.09R FOG     WCI  32  
AUSTIN/BERGSTM LGT RAIN  46  39  76 N17G29    30.04R WCI  39          
AUSTIN/MABRY   RAIN      43  38  82 NW10G25   30.06R WCI  37          
*AUSTIN/EXEC   LGT RAIN  41  37  87 N24G33    30.02F WCI  31          
*LAGO VISTA    LGT SNOW  41  41 100 N7        30.05R WCI  37          
SAN MARCOS     LGT RAIN  45  41  86 N28G36    29.99S WCI  36          
NEW BRAUNFELS  LGT RAIN  48  40  73 N21G29    29.98R WCI  41          
RANDOLPH AFB   CLOUDY    51  38  61 NW15      30.01R                  
PT SAN ANTONIO LGT RAIN  47  43  86 N21G36    29.98F WCI  39          
SAN ANTONIO    TSTM      45  40  82 NW16G32   30.02R WCI  38          
STINSON FIELD  LGT RAIN  52  36  54 N17G30    29.97R                  
*LA GRANGE     LGT SNOW N/A N/A N/A NW17G28   30.01R VSB 1            
*GIDDINGS      DRIZZLE   45  42  89 N23G36    29.98R WCI  37          
*GONZALES      HVY RAIN  53  51  95 NW26G38   29.99R                  
$$

TXZ163>164-176>182-195>201-210>213-226-227-235-230600-
SOUTHEAST TEXAS
  
CITY           SKY/WX    TMP DP  RH WIND       PRES   REMARKS
COLLEGE STN    HVY RAIN  45  43  93 NW26G35   29.98R FOG     WCI  36  
*BRYAN         HVY RAIN  44  44 100 NW22G28   30.00R WCI  35          
*CALDWELL      RAIN      44  41  91 N28G36    29.98R FOG     WCI  34  
*CROCKETT      LGT RAIN  46  45  93 NW18G26   29.98R WCI  39          
*BRENHAM       RAIN      49  48  97 N20G31    29.97R WCI  42          
HUNTSVILLE     HVY RAIN  50  50 100 NW22G33   29.93R FOG     WCI  43  
CONROE         CLOUDY    64  64 100 S3        29.88S                  
HOUSTON BUSH   LGT RAIN  67  65  93 SE14      29.85F                  
HOUSTON HOBBY  FAIR      67  64  90 SE14      29.86F                  
*HOUSTON SW AP MOCLDY    65  63  93 SE8       29.88F                  
PEARLAND       LGT RAIN  67  67 100 SE10      29.90F FOG              
HOUSTON HOOKS  LGT RAIN  66  65  96 SW3       29.88R                  
ELLINGTON FLD  LGT RAIN  64  63  94 E8        29.90F                  
SUGAR LAND     LGT RAIN  67  64  90 S10       29.86F                  
*HOUSTON EXEC  MOCLDY    64  64 100 CALM      29.89S                  
*CLEVELAND MUN DRIZZLE   66  65  96 S6        29.89S                  
*WHARTON       DRIZZLE   66  62  86 SE8       29.89R                  
*COLUMBUS      LGT RAIN  64  61  90 CALM      29.89R                  
*EAGLE LAKE    HVY RAIN  64  64  99 CALM      29.87S                  
$$

TXZ214>216-236>238-230600-
THE UPPER TEXAS COAST
  
CITY           SKY/WX    TMP DP  RH WIND       PRES   REMARKS
*ORANGE        HVY RAIN  65  65  99 SE7       29.96S                  
PORT ARTHUR    CLOUDY    67  63  87 SE9       29.93S                  
GALVESTON      CLOUDY    66  66 100 SE13      29.90F                  
ANGLETON       CLOUDY    66  65  96 SE5       29.88F                  
*BAY CITY      CLOUDY    68  65  90 SE16      29.85F                  
PALACIOS       CLOUDY    68  67  96 SE13      29.88R                  
$$

TXZ229>234-239>247-230600-
TEXAS COASTAL BEND AND RIO GRANDE PLAINS
  
CITY           SKY/WX    TMP DP  RH WIND       PRES   REMARKS
VICTORIA       LGT RAIN  64  63  96 W3        29.91R FOG              
*BEEVILLE      DRIZZLE   69  63  80 S3        29.89S                  
ROCKPORT       CLOUDY    64  62  93 NW3       29.89R FOG              
*PORT ARANSAS  CLOUDY    65  63  93 E3        29.90R FOG              
*PORT LAVACA   NOT AVBL                                               
*INGLESIDE     CLOUDY    68  63  84 CALM      29.89R                  
CORPUS CHRISTI CLOUDY    67  62  84 E5        29.87R                  
CORPUS NAS     NOT AVBL                                               
*ROBSTOWN      NOT AVBL                                               
ALICE          LGT RAIN  67  62  84 NW3       29.87R                  
KINGSVILLE NAS CLOUDY    70  63  78 SW5       29.86R                  
COTULLA        CLOUDY    63  52  67 N20G31    29.92R                  
LAREDO         CLOUDY    64  51  62 N21       29.87R                  
$$

TXZ248>255-230600-
DEEP SOUTH TEXAS
  
CITY           SKY/WX    TMP DP  RH WIND       PRES   REMARKS
BROWNSVILLE    LGT RAIN  73  66  78 SW12G22   29.84R                  
PORT ISABEL    CLOUDY    72  63  73 S12       29.83R                  
HARLINGEN      CLOUDY    70  64  81 S15       29.82S                  
*HEBBRONVILLE  MOCLDY    64  55  70 N17G23    29.85F HAZE             
MCALLEN        PTCLDY    72  64  76 SE15G23   29.79F                  
*WESLACO       CLOUDY    69  62  77 S20G26    29.80                   
FALFURRIAS     CLOUDY    70  62  75 CALM      29.84R                  
EDINBURG       FAIR      72  63  73 S16       29.80F                  
*ZAPATA        LGT RAIN  66  54  65 NW10      29.91R                  
$$

TXZ213>215-236>238-242>244-246-247-251-254-255-230600-
CMAN STATIONS
  
STATION/POSITION TIME  TEMP    WIND        PRES    WAVE
                       AIR SEA DIR/SP/G            HT/PER
                 (UTC) (F)     (DEG/KT/KT) (MB)    (FT/S)
SABINE PASS      0430   63 58  210/  6/  9 1015.7
SEA RIM ST PARK  0400   61     130/  5/  7 1014.1
NORTH JETTY/GLS  0424   62 58  140/ 13/ 14 1012.6
EAGLE POINT      0430   63 57  210/ 10/ 11 1012.9
MORGANS POINT    0430   63 56  200/  3/  7 1012.7
PORT O'CONNOR    0430   63 61  130/  8/  9 1011.0
PORT ARANSAS     0400   65 61   80/  2/  3 1010.7
MALAQUITE BEACH  0424   65 63   CALM  /  1 1011.2
BAFFIN BAY       0424   64 63  160/  3/  4 1011.0
PORT ISABEL      0424   70 63  180/ 13/ 17 1009.2
$$